Powrót do katalogu

STARLINK-36593

AktywnyŁącznośćSSO
NORAD 67564·PAYLOAD·🇺🇸 United States

Wystrzelony Jan 25, 2026 z Vandenberg Space Force Base

Loading…

Następne Przeloty (najbliższe 24 godziny)

TLE

ŚwieżeSource: CelesTrak SupGP

Epoka: Sep 15, 2026, 03:54 UTC

1 67564C 26016D   26258.16298611 -.00042481  00000+0 -13187-2 0  2580
2 67564  97.2847 316.8967 0000948  79.5989 234.7168 15.33460721    19

Śledź STARLINK-36593 w czasie rzeczywistym z AllMySat

Download on the App Store